Waarnemingen

Advertentie
Mijn weer
Fürstenzell, Duitsland (10895): temperatuur & dauwpunt: 19.02.2018 20:00:00 - 25.02.2018 20:00:00 (CET)Fürstenzell, Duitsland (10895): temperatuur 5cm & temperatuur -5cm: 19.02.2018 20:00:00 - 25.02.2018 20:00:00 (CET)Fürstenzell, Duitsland (10895): temperatuur -20cm & temperatuur -100cm: 19.02.2018 20:00:00 - 25.02.2018 20:00:00 (CET)Fürstenzell, Duitsland (10895): windsnelheid & windstoten: 19.02.2018 20:00:00 - 25.02.2018 20:00:00 (CET)Fürstenzell, Duitsland (10895): windrichting: 19.02.2018 20:00:00 - 25.02.2018 20:00:00 (CET)Fürstenzell, Duitsland (10895): luchtdruk: 19.02.2018 20:00:00 - 25.02.2018 20:00:00 (CET)Fürstenzell, Duitsland (10895): zicht: 19.02.2018 20:00:00 - 25.02.2018 20:00:00 (CET)Fürstenzell, Duitsland (10895): Zonneschijnduur: 19.02.2018 20:00:00 - 25.02.2018 20:00:00 (CET)Fürstenzell, Duitsland (10895): neerslag: 19.02.2018 20:00:00 - 25.02.2018 20:00:00 (CET)
Datum & Tijd tt [°C] td [°C] tt 5cm [°C] tt -5cm [°C] tt -20cm [°C] tt -100cm [°C] ff [km/u] ff [kn] fx [km/u] fx [kn] dd ppp [hPa] vv [km] sd [min] rr [mm]
25.02.2018 20:00:00 -8,8 -16,0 -4,3 0,1 0,6 3,0 16 8 30 16 NO 1026,4 11 0 0,0
25.02.2018 19:00:00 -7,9 -15,7 -4,0 0,1 0,6 3,0 24 13 37 20 NO 1026,0 11 0 0,0
25.02.2018 18:00:00 -7,0 -16,4 -3,4 0,2 0,6 3,0 24 13 34 18 NO 1025,4 13 42 0,0
25.02.2018 17:00:00 -5,8 -17,0 -2,2 0,2 0,6 3,0 17 9 34 18 O 1024,6 8 60 0,0
25.02.2018 16:00:00 -4,9 -16,7 -0,3 0,2 0,6 3,0 21 12 35 19 O 1024,3 6 60 0,0
25.02.2018 15:00:00 -4,8 -16,5 0,2 0,1 0,6 3,0 18 10 31 17 ONO 1024,4 4,2 60 0,0
25.02.2018 14:00:00 -4,9 -16,2 0,3 0,1 0,6 3,0 19 10 37 20 ONO 1025,0 4,0 60 0,0
25.02.2018 13:00:00 -5,4 -16,3 0,3 0,1 0,6 3,0 20 11 38 21 O 1025,6 15 60 0,0
25.02.2018 12:00:00 -6,2 -16,3 0,0 0,1 0,6 3,0 21 12 38 20 O 1026,6 3,8 60 0,0
25.02.2018 11:00:00 -7,0 -15,1 -0,8 0,1 0,6 3,0 21 11 38 21 ONO 1027,1 4,7 60 0,0
25.02.2018 10:00:00 -8,3 -15,2 -1,9 0,1 0,6 3,0 24 13 37 20 ONO 1027,6 5 60 0,0
25.02.2018 09:00:00 -9,2 -14,9 -3,0 0,1 0,6 3,0 22 12 38 21 O 1027,9 5 60 0,0
25.02.2018 08:00:00 -10,1 -14,7 -3,8 0,1 0,6 3,0 19 10 36 20 O 1028,1 7 40 0,0
25.02.2018 07:00:00 -10,5 -14,7 -4,0 0,1 0,6 3,0 20 11 39 21 O 1028,1 10 0 0,0
25.02.2018 06:00:00 -10,5 -14,7 -4,1 0,2 0,6 3,0 23 12 33 18 ONO 1028,0 10 0 0,0
25.02.2018 05:00:00 -10,2 -14,7 -3,9 0,2 0,6 3,0 21 11 35 19 ONO 1027,9 9 0 0,0
25.02.2018 04:00:00 -9,8 -14,6 -3,9 0,2 0,6 3,0 23 12 38 20 ONO 1027,8 10 0 0,0
25.02.2018 03:00:00 -9,1 -13,9 -3,9 0,2 0,6 3,0 26 14 37 20 ONO 1027,3 8 0 0,0
25.02.2018 02:00:00 -8,8 -13,9 -2,1 0,2 0,6 3,0 25 14 49 26 ONO 1027,5 8 0 0,0
25.02.2018 01:00:00 -8,3 -13,9 -3,5 0,2 0,7 3,0 34 18 54 29 ONO 1027,3 8 0 0,0
25.02.2018 00:00:00 -7,8 -13,8 -3,5 0,2 0,7 3,0 28 15 52 28 ONO 1027,1 13 0 0,0
24.02.2018 23:00:00 -7,4 -13,6 -3,2 0,2 0,7 3,0 27 15 56 30 ONO 1027,0 12 0 0,0
24.02.2018 22:00:00 -6,7 -14,0 -3,1 0,2 0,7 3,0 34 18 57 31 ONO 1026,3 13 0 0,0
24.02.2018 21:00:00 -5,9 -14,3 -2,6 0,2 0,7 3,0 36 20 53 29 ONO 1025,7 16 0 0,0
24.02.2018 20:00:00 -4,7 -12,0 -2,3 0,2 0,7 3,0 29 16 55 30 ONO 1025,1 12 0 0,0
24.02.2018 19:00:00 -3,8 -12,1 -2,0 0,2 0,7 3,0 31 17 45 24 NO 1024,4 10 0 0,0
24.02.2018 18:00:00 -3,3 -11,8 -1,3 0,2 0,7 3,0 27 15 44 24 ONO 1023,7 9 17 0,0
24.02.2018 17:00:00 -2,7 -11,6 -0,1 0,2 0,7 3,0 29 16 46 25 ONO 1023,0 7 43 0,0
24.02.2018 16:00:00 -2,0 -11,4 0,2 0,2 0,7 3,0 32 17 46 25 ONO 1022,2 3,5 60 0,0
24.02.2018 15:00:00 -0,1 -10,0 0,5 0,2 0,7 3,0 22 12 37 20 NO 1021,3 4,7 60 0,0
24.02.2018 14:00:00 -0,4 -11,2 0,4 0,2 0,7 3,0 24 13 41 22 O 1021,3 8 60 0,0
24.02.2018 13:00:00 -0,4 -12,3 0,4 0,2 0,7 3,0 24 13 37 20 O 1021,6 4,2 60 0,0
24.02.2018 12:00:00 -1,2 -13,8 0,4 0,2 0,7 3,0 16 9 25 14 NO 1022,5 3,3 60 0,0
24.02.2018 11:00:00 -1,7 -13,7 0,0 0,2 0,7 3,0 9 5 22 12 ONO 1022,8 4,9 60 0,0
24.02.2018 10:00:00 -3,3 -12,2 -1,1 0,2 0,7 3,0 19 10 24 13 NO 1023,0 5 60 0,0
24.02.2018 09:00:00 -4,7 -12,5 -2,3 0,2 0,7 3,0 18 10 30 16 O 1023,1 4,0 60 0,0
24.02.2018 08:00:00 -5,8 -12,1 -3,3 0,2 0,7 3,0 11 6 19 11 ONO 1023,0 4,4 39 0,0
24.02.2018 07:00:00 -6,7 -11,3 -3,2 0,2 0,7 3,0 13 7 23 13 ONO 1022,6 4,4 0 0,0
24.02.2018 06:00:00 -6,1 -11,0 -2,9 0,2 0,7 3,0 14 7 29 16 O 1022,2 4,3 0 0,0
24.02.2018 05:00:00 -5,6 -10,7 -2,9 0,2 0,7 3,0 16 9 24 13 ONO 1021,7 4,8 0 0,0
24.02.2018 04:00:00 -5,2 -10,4 -2,4 0,2 0,7 3,0 17 9 36 20 O 1021,4 4,7 0 0,0
24.02.2018 03:00:00 -4,5 -9,5 -2,3 0,2 0,7 3,0 26 14 38 21 O 1021,0 4,9 0 0,0
24.02.2018 02:00:00 -4,1 -8,4 -2,1 0,2 0,7 3,0 15 8 31 17 O 1020,7 4,1 0 0,0
24.02.2018 01:00:00 -3,5 -8,2 -1,8 0,2 0,7 3,0 18 10 34 18 O 1020,5 4,7 0 0,0
24.02.2018 00:00:00 -2,8 -7,5 -1,9 0,2 0,7 3,0 18 10 29 16 O 1020,1 3,9 0 0,0
23.02.2018 23:00:00 -3,1 -7,6 -2,1 0,2 0,7 3,0 16 9 25 14 O 1020,1 3,9 0 0,0
23.02.2018 22:00:00 -2,8 -7,4 -2,1 0,2 0,7 3,0 15 8 27 15 O 1020,0 3,8 0 0,0
23.02.2018 21:00:00 -3,0 -7,0 -1,5 0,2 0,7 3,0 11 6 18 10 NO 1019,8 2,9 0 0,0
23.02.2018 20:00:00 -2,5 -6,7 -0,6 0,2 0,7 3,0 12 7 19 11 NO 1019,4 2,9 0 0,0
23.02.2018 19:00:00 -2,0 -6,4 -0,2 0,2 0,7 3,0 10 6 19 10 NO 1019,3 3,2 0 0,0
23.02.2018 18:00:00 -1,7 -6,9 0,0 0,2 0,7 3,0 11 6 27 14 ONO 1018,6 3,6 0 0,0
23.02.2018 17:00:00 -1,0 -6,8 0,1 0,2 0,7 3,0 17 9 30 16 O 1018,0 3,8 1 0,0
23.02.2018 16:00:00 -0,3 -6,5 0,1 0,2 0,7 3,0 22 12 40 22 O 1017,8 4,7 0 0,0
23.02.2018 15:00:00 0,0 -6,3 0,2 0,2 0,7 3,0 27 15 40 22 O 1017,3 3,5 35 0,0
23.02.2018 14:00:00 0,3 -6,8 0,4 0,2 0,7 3,0 22 12 34 18 O 1017,3 2,5 59 0,0
23.02.2018 13:00:00 1,0 -7,1 0,5 0,2 0,7 3,0 17 9 29 16 ONO 1017,2 1,3 60 0,0
23.02.2018 12:00:00 -0,9 -7,7 0,3 0,2 0,7 3,0 22 12 40 22 O 1017,9 2,2 57 0,0
23.02.2018 11:00:00 -2,4 -7,8 -0,1 0,2 0,7 3,0 19 10 31 17 ONO 1018,5 3,6 0 0,0
23.02.2018 10:00:00 -3,4 -8,1 -0,6 0,2 0,7 3,0 15 8 26 14 ONO 1018,5 4,0 0 0,0
23.02.2018 09:00:00 -4,2 -8,1 -1,2 0,2 0,7 3,0 15 8 28 15 ONO 1018,5 4,4 0 0,0
23.02.2018 08:00:00 -4,6 -8,4 -1,6 0,2 0,7 3,0 16 9 26 14 ONO 1018,5 4,5 0 0,0
23.02.2018 07:00:00 -4,7 -8,1 -1,4 0,2 0,7 3,1 18 10 26 14 ONO 1018,1 3,8 0 0,0
23.02.2018 06:00:00 -4,7 -7,7 -1,6 0,2 0,7 3,1 13 7 19 11 ONO 1018,2 3,3 0 0,0
23.02.2018 05:00:00 -4,7 -8,2 -2,1 0,2 0,7 3,1 14 8 20 11 ONO 1018,1 3,5 0 0,0
23.02.2018 04:00:00 -5,4 -8,5 -2,2 0,2 0,7 3,1 7 4 18 10 O 1018,3 3,2 0 0,0
23.02.2018 03:00:00 -4,8 -8,4 -1,8 0,2 0,7 3,1 15 8 30 16 ONO 1018,5 3,8 0 0,0
23.02.2018 02:00:00 -3,9 -8,3 -1,7 0,2 0,7 3,1 18 10 31 17 O 1018,8 3,9 0 0,0
23.02.2018 01:00:00 -3,7 -8,0 -1,8 0,2 0,7 3,1 16 8 29 16 O 1018,6 3,8 0 0,0
23.02.2018 00:00:00 -3,3 -7,5 -1,5 0,2 0,7 3,1 18 10 34 18 O 1018,8 4,2 0 0,0
22.02.2018 23:00:00 -3,2 -7,0 -1,3 0,2 0,7 3,1 16 9 31 17 O 1018,9 3,6 0 0,0
22.02.2018 22:00:00 -2,6 -6,9 -1,1 0,2 0,7 3,1 22 12 32 17 O 1018,5 3,9 0 0,0
22.02.2018 21:00:00 -3,5 -5,0 -1,1 0,2 0,7 3,1 10 5 15 8 ONO 1018,9 2,4 0 0,0
22.02.2018 20:00:00 -3,5 -4,5 -0,5 0,2 0,7 3,1 11 6 17 9 NNO 1019,3 1,8 0 0,1
22.02.2018 19:00:00 -2,8 -5,3 -0,2 0,2 0,7 3,1 14 7 27 14 ONO 1019,1 1,2 0 0,1
22.02.2018 18:00:00 -2,3 -5,7 0,0 0,2 0,7 3,1 16 9 23 12 NO 1018,8 3,4 0 0,0
22.02.2018 17:00:00 -2,4 -5,4 0,0 0,2 0,7 3,1 18 10 34 19 ONO 1018,5 3,0 0 0,0
22.02.2018 16:00:00 -1,5 -7,5 0,1 0,2 0,7 3,1 17 9 35 19 O 1018,3 4,5 3 0,0
22.02.2018 15:00:00 -1,4 -8,0 0,2 0,2 0,7 3,1 24 13 38 20 ONO 1018,2 3,8 21 0,0
22.02.2018 14:00:00 -1,5 -8,0 0,3 0,2 0,7 3,1 28 15 41 22 O 1018,3 3,5 44 0,0
22.02.2018 13:00:00 -1,8 -8,0 0,2 0,2 0,7 3,1 26 14 40 22 O 1018,7 2,2 50 0,0
22.02.2018 12:00:00 -2,1 -8,1 0,0 0,2 0,7 3,1 25 14 38 21 O 1019,1 3,3 29 0,0
22.02.2018 11:00:00 -2,1 -7,7 -0,3 0,2 0,7 3,1 22 12 45 24 O 1018,9 3,7 3 0,0
22.02.2018 10:00:00 -2,8 -8,0 -0,6 0,2 0,7 3,1 26 14 40 21 ONO 1019,1 3,9 0 0,0
22.02.2018 09:00:00 -2,9 -8,0 -0,9 0,2 0,7 3,1 21 12 34 19 O 1019,3 4,3 0 0,0
22.02.2018 08:00:00 -3,0 -7,6 -1,2 0,2 0,7 3,1 23 12 36 20 ONO 1019,1 4,3 0 0,0
22.02.2018 07:00:00 -3,1 -7,4 -1,2 0,2 0,7 3,1 19 10 34 18 O 1019,0 4,0 0 0,0
22.02.2018 06:00:00 -3,0 -7,5 -1,2 0,2 0,7 3,1 22 12 33 18 O 1019,1 4,2 0 0,0
22.02.2018 05:00:00 -3,0 -7,2 -1,3 0,2 0,7 3,1 21 11 42 23 O 1019,2 3,9 0 0,0
22.02.2018 04:00:00 -3,0 -7,1 -1,3 0,2 0,7 3,1 24 13 44 24 ONO 1019,6 3,4 0 0,0
22.02.2018 03:00:00 -2,9 -7,1 -1,4 0,2 0,7 3,1 30 16 50 27 ONO 1019,9 3,4 0 0,0
22.02.2018 02:00:00 -2,7 -6,7 -1,4 0,2 0,7 3,1 26 14 40 21 ONO 1020,3 3,2 0 0,0
22.02.2018 01:00:00 -2,6 -6,6 -1,3 0,2 0,7 3,1 19 10 35 19 ONO 1020,6 3,1 0 0,0
22.02.2018 00:00:00 -2,2 -6,8 -1,4 0,2 0,7 3,1 22 12 34 19 ONO 1020,5 3,4 0 0,0
21.02.2018 23:00:00 -2,0 -7,3 -1,2 0,2 0,7 3,1 13 7 22 12 NO 1020,8 4,9 0 0,0
21.02.2018 22:00:00 -1,3 -7,6 -0,9 0,2 0,7 3,1 16 9 29 16 NO 1020,7 6 0 0,0
21.02.2018 21:00:00 -0,9 -7,2 -0,2 0,2 0,7 3,1 18 10 25 14 NO 1020,5 6 0 0,0
21.02.2018 20:00:00 -0,6 -6,6 -0,1 0,2 0,7 3,1 13 7 24 13 ONO 1020,3 4,2 0 0,0
21.02.2018 19:00:00 -0,2 -6,4 0,0 0,2 0,7 3,1 10 6 24 13 NO 1020,1 3,9 0 0,0
21.02.2018 18:00:00 0,3 -7,3 0,0 0,2 0,7 3,1 17 9 28 15 ONO 1019,5 4,1 8 0,0
21.02.2018 17:00:00 1,2 -8,5 0,0 0,2 0,7 3,1 20 11 30 16 ONO 1018,8 6 19 0,0
21.02.2018 16:00:00 2,1 -6,4 0,1 0,2 0,7 3,1 5 3 12 6 NNO 1018,4 3,4 60 0,0
21.02.2018 15:00:00 2,5 -7,8 0,2 0,2 0,7 3,1 3 2 8 4 NO 1018,3 2,9 60 0,0
21.02.2018 14:00:00 1,7 -7,6 0,2 0,2 0,7 3,1 6 3 10 6 ONO 1018,8 3,0 60 0,0
21.02.2018 13:00:00 1,4 -7,8 0,2 0,2 0,7 3,1 2 1 7 4 ZW 1019,3 1,2 47 0,0
21.02.2018 12:00:00 0,2 -4,6 0,2 0,2 0,7 3,1 5 3 7 4 ZW 1019,7 1,5 34 0,0
21.02.2018 11:00:00 0,1 -5,9 0,0 0,2 0,7 3,1 0 0 6 3 N 1020,0 1,7 20 0,0
21.02.2018 10:00:00 -1,3 -5,6 -0,2 0,2 0,7 3,1 8 4 14 8 NO 1020,5 2,5 0 0,0
21.02.2018 09:00:00 -2,2 -4,8 -0,5 0,2 0,7 3,1 8 5 13 7 NO 1020,4 1,9 0 0,0
21.02.2018 08:00:00 -2,6 -4,7 -0,8 0,2 0,7 3,1 10 5 14 8 NO 1019,9 2,1 0 0,0
21.02.2018 07:00:00 -2,5 -4,8 -0,8 0,2 0,7 3,1 11 6 15 8 N 1019,7 2,2 0 0,0
21.02.2018 06:00:00 -2,0 -4,7 -0,8 0,2 0,7 3,1 10 5 17 9 N 1018,9 2,3 0 0,0
21.02.2018 05:00:00 -1,7 -4,8 -1,0 0,2 0,7 3,1 12 6 15 8 N 1018,7 2,5 0 0,0
21.02.2018 04:00:00 -2,2 -4,6 -1,3 0,2 0,7 3,1 11 6 16 9 N 1018,8 2,5 0 0,0
21.02.2018 03:00:00 -3,1 -4,7 -1,4 0,2 0,7 3,1 10 6 16 9 NNO 1019,0 2,2 0 0,0
21.02.2018 02:00:00 -2,6 -4,7 -1,4 0,2 0,7 3,1 11 6 14 7 N 1018,5 2,7 0 0,0
21.02.2018 01:00:00 -3,2 -4,3 -0,8 0,2 0,7 3,1 10 5 14 7 NNW 1018,6 1,9 0 0,0
21.02.2018 00:00:00 -2,0 -3,5 -0,1 0,2 0,7 3,1 8 4 11 6 N 1018,4 2,3 0 0,0
20.02.2018 23:00:00 -1,9 -3,2 0,0 0,2 0,7 3,1 8 5 10 5 NNW 1018,3 3,0 0 0,0
20.02.2018 22:00:00 -1,9 -2,9 0,0 0,2 0,7 3,1 6 3 18 10 N 1018,2 2,0 0 0,1
20.02.2018 21:00:00 -1,5 -1,7 0,0 0,2 0,7 3,1 11 6 16 9 NNO 1017,8 0,5 0 0,1
20.02.2018 20:00:00 -1,4 -1,7 0,0 0,2 0,7 3,1 9 5 16 9 NW 1017,4 0,5 0 0,2
20.02.2018 19:00:00 -1,4 -1,8 0,0 0,2 0,7 3,1 12 6 18 10 NW 1017,1 0,4 0 0,1
20.02.2018 18:00:00 -1,3 -1,8 0,0 0,2 0,7 3,1 10 6 15 8 NW 1016,7 0,5 0 0,5
20.02.2018 17:00:00 -0,9 -1,8 0,0 0,2 0,7 3,1 5 3 8 5 NNW 1016,3 0,8 0 0,2
20.02.2018 16:00:00 -0,7 -2,3 0,1 0,2 0,7 3,1 5 3 6 3 NW 1016,0 0,8 0 0,0
20.02.2018 15:00:00 -0,3 -3,3 0,1 0,2 0,7 3,1 4 2 10 5 WZW 1015,9 2,0 0 0,1
20.02.2018 14:00:00 0,1 -4,5 0,2 0,2 0,7 3,1 2 1 9 5 ZZW 1015,9 3,3 0 0,0
20.02.2018 13:00:00 0,0 -3,8 0,1 0,2 0,7 3,1 5 3 9 5 ONO 1016,2 2,3 2 0,0
20.02.2018 12:00:00 -0,8 -3,6 0,1 0,2 0,7 3,2 6 3 10 5 NO 1016,8 1,3 0 0,0
20.02.2018 11:00:00 -1,3 -3,4 0,0 0,2 0,7 3,2 2 1 5 3 NNO 1017,0 1,0 0 0,1
20.02.2018 10:00:00 -1,8 -3,7 -0,4 0,2 0,7 3,2 3 2 6 3 ONO 1017,1 0,9 0 0,1
20.02.2018 09:00:00 -2,7 -3,6 -1,1 0,2 0,7 3,2 0 0 0 0 N 1017,3 0,4 0 0,1
20.02.2018 08:00:00 -3,2 -3,8 -1,3 0,2 0,7 3,2 0 0 0 0 N 1017,4 0,6 0 0,3
20.02.2018 07:00:00 -3,2 -3,6 -1,3 0,2 0,7 3,2 0 0 0 0 N 1017,3 0,5 0 0,2
20.02.2018 06:00:00 -3,2 -3,5 -1,4 0,2 0,7 3,2 0 0 5 3 N 1017,1 0,6 0 0,0
20.02.2018 05:00:00 -3,3 -3,7 -1,6 0,2 0,7 3,2 3 2 4 2 O 1017,1 0,8 0 0,1
20.02.2018 04:00:00 -3,0 -3,8 -1,3 0,2 0,7 3,2 0 0 4 2 N 1017,0 0,8 0 0,1
20.02.2018 03:00:00 -2,7 -4,0 -1,1 0,2 0,7 3,2 3 2 5 3 NNO 1017,2 1,4 0 0,0
20.02.2018 02:00:00 -2,6 -4,1 -1,1 0,2 0,7 3,2 2 1 5 3 O 1017,6 2,0 0 0,0
20.02.2018 01:00:00 -2,6 -4,2 -1,1 0,2 0,7 3,2 6 3 8 4 NO 1017,9 2,3 0 0,0
20.02.2018 00:00:00 -2,6 -4,5 -1,1 0,2 0,7 3,2 4 2 8 4 NO 1018,3 2,7 0 0,0
19.02.2018 23:00:00 -2,6 -4,4 -1,1 0,2 0,7 3,2 4 2 8 4 N 1018,3 2,8 0 0,0
19.02.2018 22:00:00 -2,6 -4,6 -1,2 0,2 0,7 3,2 6 3 10 5 WNW 1018,8 3,4 0 0,0
19.02.2018 21:00:00 -2,3 -4,4 -1,3 0,2 0,7 3,2 5 3 10 5 W 1019,0 3,5 0 0,0
19.02.2018 20:00:00 -2,3 -4,5 -1,6 0,2 0,7 3,2 8 5 14 7 W 1019,1 3,2 0 0,0

tt = temperatuur
td = dauwpunt
tt 5cm = temperatuur 5cm
tt -5cm = temperatuur -5cm
tt -20cm = temperatuur -20cm
tt -100cm = temperatuur -100cm
ff = windsnelheid
fx = windstoten
dd = windrichting
ppp = luchtdruk
vv = zicht
sd = Zonneschijnduur
rr = neerslag

Weerstations in de omgeving